Eddersheim, Germany

4:23 AM CEST on October 18, 2017 (GMT +0200)
Eddersheim

Weather History for 10637 - December, 2013

Change the Weather History Date:

Monday, December 16, 2013

  Actual Average Record
Temperature  
Mean Temperature 36 °F -  
Max Temperature 45 °F 38 °F - ()
Min Temperature 27 °F 29 °F - ()
Degree Days  
Heating Degree Days 29    
Moisture  
Dew Point 31 °F    
Average Humidity 87    
Maximum Humidity 100    
Minimum Humidity 52    
Precipitation  
Precipitation 0.00 in - - ()
Sea Level Pressure  
Sea Level Pressure 30.40 in    
Wind  
Wind Speed 2 mph ()    
Max Wind Speed 7 mph    
Max Gust Speed -    
Visibility 11.7 miles    
Events Fog    
T = Trace of Precipitation, MM = Missing Value Source: Averaged Metar Reports

Daily Weather History Graph

Daily Weather History Graph

Search for Another Location

Airport or City:

Trip Planner

Search our weather history database for the weather conditions in past years. The results will help you decide how hot, cold, wet, or windy it might be!

Date:

Astronomy

Dec. 16, 2013 Rise Set
Actual Time 8:18 AM CET 4:23 PM CET
Civil Twilight 7:40 AM CET 5:02 PM CET
Nautical Twilight 6:58 AM CET 5:44 PM CET
Astronomical Twilight 6:19 AM CET 6:23 PM CET
Moon 4:07 PM CET (12/16) 7:06 AM CET (12/16)
Length of Visible Light 9h 22m
Length of Day
8h 05m
Waxing Gibbous, 99% of the Moon is Illuminated
Dec 16
Waxing Gibbous
Dec 17
Full
Dec 25
Last Quarter
Jan 1
New
Jan 8
First Quarter

Hourly Weather History & Observations

Time (CET) Temp. Windchill Dew Point Humidity Pressure Visibility Wind Dir Wind Speed Gust Speed Precip Events Conditions
12:00 AM 29 °F - 28 °F 93% 30.48 in 14 mi Calm Calm - -   Scattered Clouds
12:20 AM 28.4 °F - 28.4 °F 100% 30.45 in 6.2 mi East 1.2 mph - N/A   Partly Cloudy
12:50 AM 28.4 °F - 28.4 °F 100% 30.45 in 6.2 mi NE 1.2 mph - N/A   Partly Cloudy
1:00 AM 29 °F - 27 °F 91% 30.47 in 14 mi Calm Calm - -   Scattered Clouds
1:20 AM 28.4 °F - 28.4 °F 100% 30.42 in - ENE 2.3 mph - N/A   Clear
1:50 AM 28.4 °F - 28.4 °F 100% 30.42 in - Variable 2.3 mph - N/A   Clear
2:00 AM 28 °F - 27 °F 96% 30.46 in 13 mi NE 2.2 mph - -   Scattered Clouds
2:20 AM 30.2 °F - 30.2 °F 100% 30.42 in 6.2 mi Variable 1.2 mph - N/A   Partly Cloudy
2:50 AM 30.2 °F - 30.2 °F 100% 30.42 in 6.2 mi NW 2.3 mph - N/A   Partly Cloudy
3:00 AM 29 °F - 28 °F 96% 30.46 in 12 mi NW 2.2 mph - -   Scattered Clouds
3:20 AM 28.4 °F - 28.4 °F 100% 30.42 in - Variable 1.2 mph - N/A   Clear
3:50 AM 30.2 °F - 30.2 °F 100% 30.42 in - South 2.3 mph - N/A   Clear
4:20 AM 28.4 °F - 28.4 °F 100% 30.42 in - Calm Calm - N/A   Clear
4:50 AM 28.4 °F - 28.4 °F 100% 30.42 in 6.2 mi North 2.3 mph - N/A   Partly Cloudy
5:00 AM 28 °F - 26 °F 91% 30.46 in 11 mi North 2.2 mph - -   Scattered Clouds
5:20 AM 32.0 °F 28.7 °F 32.0 °F 100% 30.42 in - South 3.5 mph - N/A   Clear
5:50 AM 30.2 °F - 30.2 °F 100% 30.42 in - Variable 2.3 mph - N/A   Clear
6:00 AM 30 °F - 29 °F 93% 30.46 in 11 mi South 2.2 mph - -   Scattered Clouds
6:20 AM 32.0 °F 28.7 °F 30.2 °F 93% 30.42 in - Variable 3.5 mph - N/A   Clear
6:50 AM 32.0 °F - 30.2 °F 93% 30.42 in - Variable 2.3 mph - N/A   Clear
7:00 AM 31 °F - 29 °F 88% 30.45 in 11 mi WSW 2.2 mph - -   Scattered Clouds
7:20 AM 32.0 °F - 32.0 °F 100% 30.42 in - Variable 2.3 mph - N/A   Clear
7:50 AM 30.2 °F 24.3 °F 30.2 °F 100% 30.42 in - SW 5.8 mph - N/A   Clear
8:00 AM 31 °F - 29 °F 91% 30.44 in 9 mi SW 4.5 mph - -   Scattered Clouds
8:20 AM 30.2 °F - 28.4 °F 93% 30.42 in - Variable 1.2 mph - N/A   Clear
8:50 AM 30.2 °F - 30.2 °F 100% 30.42 in - West 2.3 mph - N/A   Clear
9:00 AM 30 °F - 28 °F 91% 30.45 in 9 mi West 2.2 mph - -   Scattered Clouds
9:20 AM 32.0 °F 27.5 °F 32.0 °F 100% 30.42 in - SW 4.6 mph - N/A   Clear
9:50 AM 33.8 °F 29.6 °F 32.0 °F 93% 30.42 in - SSW 4.6 mph - N/A   Clear
10:20 AM 33.8 °F 27.7 °F 32.0 °F 93% 30.42 in - SSW 6.9 mph - N/A   Clear
10:50 AM 35.6 °F 31.7 °F 32.0 °F 87% 30.42 in - SSW 4.6 mph - N/A   Clear
11:00 AM 35 °F - 32 °F 83% 30.45 in 11 mi SSW 4.5 mph - -   Scattered Clouds
11:20 AM 37.4 °F 32.8 °F 33.8 °F 87% 30.42 in - SSW 5.8 mph - N/A   Clear
11:50 AM 37.4 °F 32.8 °F 33.8 °F 87% 30.42 in - SW 5.8 mph - N/A   Clear
12:00 PM 38 °F - 33 °F 76% 30.43 in 11 mi SW 4.5 mph - -   Scattered Clouds
12:20 PM 39.2 °F 35.9 °F 33.8 °F 81% 30.39 in - SW 4.6 mph - N/A   Clear
12:50 PM 41.0 °F 38.0 °F 33.8 °F 76% 30.39 in - SW 4.6 mph - N/A   Clear
1:00 PM 42 °F - 34 °F 66% 30.41 in 12 mi SW 4.5 mph - -   Scattered Clouds
1:20 PM 42.8 °F 41.1 °F 33.8 °F 70% 30.39 in - West 3.5 mph - N/A   Clear
1:50 PM 42.8 °F 41.1 °F 33.8 °F 70% 30.39 in - SW 3.5 mph - N/A   Clear
2:00 PM 43 °F - 34 °F 60% 30.40 in 16 mi SW 4.5 mph - -   Scattered Clouds
2:20 PM 42.8 °F - 32.0 °F 66% 30.36 in - West 2.3 mph - N/A   Clear
2:50 PM 44.6 °F - 32.0 °F 61% 30.36 in - Variable 2.3 mph - N/A   Clear
3:00 PM 45 °F - 33 °F 52% 30.39 in 16 mi WSW 2.2 mph - -   Scattered Clouds
3:20 PM 44.6 °F - 32.0 °F 61% 30.36 in - Variable 2.3 mph - N/A   Clear
3:50 PM 42.8 °F - 32.0 °F 66% 30.36 in - WSW 2.3 mph - N/A   Clear
4:20 PM 41.0 °F - 32.0 °F 70% 30.36 in - SSW 2.3 mph - N/A   Clear
4:50 PM 39.2 °F - 32.0 °F 75% 30.36 in - Variable 1.2 mph - N/A   Clear
5:00 PM 39 °F - 32 °F 67% 30.39 in 16 mi ENE 2.2 mph - -   Scattered Clouds
5:20 PM 37.4 °F - 32.0 °F 81% 30.36 in - Calm Calm - N/A   Clear
5:50 PM 35.6 °F - 32.0 °F 87% 30.36 in - Variable 1.2 mph - N/A   Clear
6:00 PM 36 °F - 32 °F 78% 30.39 in 16 mi Calm Calm - -   Scattered Clouds
6:20 PM 37.4 °F - 32.0 °F 81% 30.36 in - East 2.3 mph - N/A   Clear
6:50 PM 37.4 °F - 32.0 °F 81% 30.36 in - Variable 2.3 mph - N/A   Clear
7:00 PM 37 °F - 32 °F 76% 30.40 in 16 mi NE 2.2 mph - -   Mostly Cloudy
7:20 PM 37.4 °F - 32.0 °F 81% 30.36 in - Variable 2.3 mph - N/A   Clear
7:50 PM 37.4 °F - 32.0 °F 81% 30.36 in - ENE 1.2 mph - N/A   Clear
8:00 PM 36 °F - 32 °F 80% 30.40 in 16 mi ENE 2.2 mph - -   Mostly Cloudy
8:20 PM 37.4 °F - 33.8 °F 87% 30.36 in - Variable 1.2 mph - N/A   Clear
8:50 PM 37.4 °F - 33.8 °F 87% 30.36 in - Variable 1.2 mph - N/A   Clear
9:00 PM 36 °F - 32 °F 81% 30.40 in 16 mi East 2.2 mph - -   Mostly Cloudy
9:20 PM 33.8 °F - 32.0 °F 93% 30.39 in - NE 2.3 mph - N/A   Clear
9:50 PM 33.8 °F - 30.2 °F 87% 30.36 in - Variable 2.3 mph - N/A   Clear
10:20 PM 33.8 °F - 32.0 °F 93% 30.36 in - Variable 2.3 mph - N/A   Clear
10:50 PM 32.0 °F - 30.2 °F 93% 30.36 in - Variable 1.2 mph - N/A   Clear
11:00 PM 32 °F - 29 °F 86% 30.39 in 16 mi SE 2.2 mph - -   Partly Cloudy
11:20 PM 30.2 °F - 28.4 °F 93% 30.36 in - Variable 1.2 mph - N/A   Clear
11:50 PM 30.2 °F - 30.2 °F 100% 30.36 in 6.2 mi Variable 1.2 mph - N/A Fog Patches of Fog